Voltar ao catálogo

STARLINK-34418

AtivoComunicaçõesVLEO
NORAD 64461·PAYLOAD·🇺🇸 United States

Lançado Jun 18, 2025 de Cape Canaveral Space Force Station

Loading…

Próximas Passagens (próximas 24 horas)

TLE

AtualizadoSource: CelesTrak SupGP

Época: Sep 15, 2026, 03:35 UTC

1 64461C 25130Z   26258.14979167 -.00002180  00000+0 -64406-4 0  2583
2 64461  53.1570 286.4556 0001212  95.1463 106.6847 15.34385310    10

Acompanhe STARLINK-34418 em tempo real com AllMySat

Download on the App Store